SCP
0 0 0 0 0 0 0 0 0 0 0 0 0 0 0 0 0 0 0 0 0 0 0 0 0 0 0 0 0 0 0 0 0 0 0 0 0 0 0 0 0 0 0 0 0 0 0 0 0 0 0 0 0 0
0 0 0 0 0 0 0 0 0 0 0 0 0 0 0 0 0 0 0 0 0 0 0 0 0 0 0 0 0 0 0 0 0 0 0 0 0 0 0 0 0 0 0 0 0 0 0 0 -0 0 0 0 -0 0
0 0 0 0 0 0 0 0 0 0 0 0 0 0 0 0 0 0 0 0 0 0 0 0 0 0 0 0 0 0 0 0 0 0 0 0 0 0 0 0 0 -0 0 0 0 0 0 0 0 0 0 0 0 -0
0 0 0 0 0 0 0 0 0 0 0 0 0 0 0 0 0 0 0 0 0 0 0 0 0 0 0 0 0 0 0 0 0 0 0 0 0 0 0 0 0 0 0 -0 -0 -0 -0 -0 0 0 0 0 0 0
0 0 0 0 0 0 0 0 0 0 0 0 0 0 0 0 0 0 0 0 0 0 0 0 0 0 0 0 0 0 0 0 0 0 0 0 0 0 0 0 0 0 0 0 0 0 0 -0 -0 0 0 0 -0 -0
0 0 0 0 0 0 0 0 0 0 0 0 0 0 0 0 0 0 0 0 0 0 0 0 0 0 0 0 0 0 0 0 0 0 0 0 0 0 0 0 0 0 0 0 0 0 0 -0 -0 -0 -0 -0 -0 -0
0 0 0 0 0 0 0 0 0 0 0 0 0 0 0 0 0 0 0 0 0 0 0 0 0 0 0 0 0 0 0 0 0 0 0 0 0 0 0 0 0 0 0 0 0 0 0 0 0 0 -0 -0 -0 -0
0 0 0 0 0 0 0 0 0 0 0 0 0 0 0 0 0 0 0 0 0 0 0 0 0 0 0 0 0 0 0 0 0 0 0 0 0 0 0 0 0 0 0 0 0 0 0 0 0 0 0 -0 -0 -0
0 0 0 0 0 0 0 0 0 0 0 0 0 0 0 0 0 0 0 0 0 0 0 0 0 0 0 0 0 0 0 0 0 0 0 0 0 0 0 0 0 0 0 -0 0 0 0 0 0 -0 0 -0 0 0
0 0 0 0 0 0 0 0 0 0 0 0 0 0 0 0 0 0 0 0 0 0 0 0 0 0 0 0 0 0 0 0 0 0 0 0 0 0 0 0 0 0 0 0 0 0 0 0 0 0 0 0 -0 -0
0 0 0 0 0 0 0 0 0 0 0 0 0 0 0 0 0 0 0 0 0 0 0 0 0 0 0 0 0 0 0 0 0 0 0 0 0 0 0 0 0 0 0 0 0 0 0 0 0 0 0 0 0 -0
0 0 0 0 0 0 0 0 0 0 0 0 0 0 0 0 0 0 0 0 0 0 0 0 0 0 0 0 0 0 0 0 0 0 0 0 -0 0 0 0 0 0 0 0 0 0 -0 -0 -0 -0 0 0 0 -0
0 0 0 0 0 0 0 0 0 0 0 0 0 0 0 0 0 0 0 0 0 0 0 0 0 0 0 0 0 0 0 0 0 0 0 0 0 0 0 0 -0 -0 -0 -0 -0 -0 -0 -0 -0 -0 -0 -0 -0 0
0 0 0 0 0 0 0 -0 -0 0 0 0 0 0 0 0 0 0 0 0 0 0 0 0 0 0 0 0 0 0 0 0 0 0 0 0 -0 -0 -0 -0 -0 -0 -0 -0 -0 -0 0 0 0 0 0 0 0 0
0 0 0 0 -0 -0 -0 -0 -0 0 0 0 0 0 0 0 0 0 0 0 0 0 0 -0 0 0 0 0 0 0 0 0 0 0 0 0 -0 -0 -0 -0 -0 -0 0 0 0 0 -0 0 0 0 0 0 0 0
0 0 0 -0 -0 -0 0 0 0 0 0 0 0 0 0 0 0 0 0 0 0 0 -0 0 0 0 0 0 0 0 0 0 -0 -0 -0 -0 -0 -0 -0 -0 0 0 0 0 -0 -0 0 0 0 0 0 0 0 0
0 0 -0 -0 -0 -0 -0 0 0 0 0 0 0 0 0 0 0 0 0 0 0 0 0 0 0 0 0 0 0 -0 -0 -0 -0 -0 -0 -0 0 -0 -0 0 0 0 -0 -0 0 0 0 -0 0 0 0 0 0 0
0 -0 -0 -0 0 0 0 0 0 0 0 0 0 0 0 0 -0 -0 0 0 0 0 0 0 0 -0 -0 -0 -0 -0 -0 -0 -0 -0 -0 0 -0 -0 0 0 0 -0 -0 -0 -0 0 -0 0 0 0 0 0 0 0
-0 -0 -0 -0 0 0 0 0 0 0 0 0 0 0 0 0 0 -0 -0 0 0 0 0 -0 -0 -0 -0 -0 -0 -0 -0 -0 -0 0 -0 0 0 0 0 -0 -0 -0 -0 -0 -0 0 0 0 0 0 0 0 0 0
-0 -0 -0 -0 0 0 0 0 0 0 0 0 0 0 0 -0 0 0 0 0 -0 0 -0 0 0 -0 -0 -0 -0 0 -0 -0 0 -0 0 -0 0 -0 -0 -0 -0 -0 -0 -0 0 0 0 0 0 0 0 0 0 0
-0 0 -0 0 0 0 0 0 0 0 0 0 0 -0 0 0 0 0 0 0 -0 0 0 0 0 -0 -0 -0 0 -0 -0 -0 0 0 -0 -0 -0 -0 -0 -0 -0 -0 0 0 0 0 -0 0 0 0 0 0 0 0
0 0 0 0 0 0 0 0 0 0 0 -0 -0 0 0 0 0 0 0 -0 -0 0 0 0 -0 -0 -0 -0 0 0 -0 -0 -0 -0 -0 -0 -0 -0 -0 0 -0 0 0 0 0 0 -0 0 0 0 -0 0 0 0
0 0 0 0 0 0 0 0 -0 -0 0 0 0 -0 -0 0 -0 0 -0 0 -0 -0 -0 0 -0 -0 -0 -0 -0 -0 0 0 0 -0 -0 -0 -0 -0 -0 0 0 0 0 0 0 -0 -0 -0 0 0 0 -0 0 0
0 0 0 0 0 0 0 0 0 0 0 0 -0 -0 0 0 -0 -0 -0 -0 -0 0 -0 0 -0 -0 -0 0 -0 -0 -0 0 0 -0 -0 -0 -0 0 0 0 0 0 0 -0 0 -0 -0 -0 -0 0 0 -0 0 0
0 0 0 0 0 -0 0 0 0 0 0 -0 -0 -0 -0 -0 0 0 0 -0 -0 -0 -0 -0 -0 -0 -0 -0 0 -0 0 0 -0 -0 0 -0 -0 0 -0 0 0 -0 -0 -0 -0 -0 -0 -0 -0 0 0 0 0 0
0 0 0 0 -0 0 0 0 0 -0 -0 -0 -0 -0 -0 -0 0 0 -0 -0 -0 -0 -0 -0 -0 -0 0 0 -0 -0 -0 -0 -0 -0 -0 0 0 0 -0 0 0 -0 -0 -0 -0 -0 -0 -0 0 0 0 0 0 0
0 0 0 0 0 0 -0 0 -0 -0 -0 -0 -0 -0 -0 -0 -0 -0 -0 -0 -0 -0 -0 -0 -0 0 -0 -0 -0 -0 -0 -0 -0 -0 -0 -0 -0 -0 -0 -0 -0 -0 -0 -0 -0 0 0 0 -0 0 0 0 0 0
0 0 0 0 0 0 0 -0 -0 -0 -0 -0 -0 -0 -0 -0 -0 -0 -0 -0 -0 -0 -0 -0 -0 -0 -0 -0 -0 -0 -0 -0 -0 -0 -0 -0 -0 -0 -0 -0 -0 -0 0 0 0 0 0 0 0 0 0 0 0 0
0 0 0 0 0 0 0 -0 -0 -0 -0 -0 -0 -0 -0 -0 -0 -0 -0 -0 -0 -0 -0 -0 -0 -0 -0 -0 -0 -0 -0 -0 -0 -0 -0 -0 0 0 0 -0 0 0 0 0 0 -0 -0 0 -0 0 0 0 0 0
0 0 0 0 0 0 -0 -0 -0 -0 -0 -0 -0 -0 -0 -0 -0 -0 -0 -0 -0 -0 -0 -0 -0 -0 -0 -0 -0 -0 -0 -0 0 -0 -0 -0 -0 -0 0 0 0 0 0 0 -0 -0 -0 -0 0 0 0 0 0 0
0 0 0 0 0 -0 -0 -0 -0 -0 -0 -0 -0 -0 -0 -0 -0 -0 -0 -0 -0 0 0 -0 -0 -0 -0 -0 -0 -0 -0 -0 -0 -0 -0 -0 -0 -0 -0 0 0 0 0 0 -0 -0 -0 -0 0 0 0 0 -0 -0
-0 0 0 0 0 -0 -0 -0 -0 -0 -0 -0 -0 -0 -0 -0 -0 -0 -0 -0 0 0 -0 -0 -0 -0 -0 -0 -0 -0 -0 -0 -0 -0 -0 -0 -0 0 0 0 0 0 0 0 0 0 0 0 0 0 0 0 0 0
-0 0 0 -0 -0 -0 -0 -0 -0 -0 -0 -0 -0 -0 -0 -0 0 0 0 0 0 -0 -0 -0 -0 -0 -0 -0 -0 0 0 0 -0 -0 -0 -0 -0 0 0 0 0 0 0 0 0 0 0 0 0 0 0 0 0 0
Wind_Speed_500mb
54 54 55 55 57 55 53 52 51 47 46 46 46 44 43 42 44 42 51 45 41 42 57 68 67 54 45 41 17 26 22 17 10 6 5 6 12 15 20 28 28 28 12 6 12 18 19 43 20 12 13 31 37 46
56 57 57 57 55 53 51 50 49 49 52 48 47 48 47 45 46 44 59 58 55 55 55 55 60 63 63 65 62 55 38 29 8 4 3 1 5 10 30 30 27 14 8 6 7 10 46 67 17 22 11 30 19 33
57 56 57 56 55 54 53 53 53 53 53 53 54 50 49 52 55 56 65 65 65 60 73 79 71 47 35 46 54 66 57 55 55 51 22 11 13 7 13 15 22 27 37 24 23 7 19 61 48 32 35 38 27 28
57 60 57 58 56 56 55 55 54 55 57 54 55 59 59 63 63 67 71 65 64 37 26 55 66 71 69 63 68 78 88 85 69 56 26 7 12 27 19 24 26 26 36 38 49 35 35 30 36 57 52 49 50 53
63 60 61 59 59 59 58 55 56 63 58 61 65 64 63 68 64 57 54 62 63 54 39 52 80 104 115 107 92 71 61 70 60 38 16 16 32 20 25 25 28 40 39 30 33 49 48 51 55 50 55 60 57 57
61 60 61 63 66 60 57 59 68 64 63 63 61 64 67 61 50 54 49 57 59 60 43 18 31 37 64 60 64 77 81 72 52 18 15 35 68 38 20 34 54 68 75 72 55 65 73 88 88 82 75 64 62 65
63 66 67 69 67 58 56 61 59 64 63 64 69 71 64 59 56 56 37 33 30 40 23 12 10 16 20 38 55 59 52 46 35 30 23 40 53 57 31 41 53 62 58 42 48 56 58 70 62 64 71 71 67 70
61 61 61 61 54 57 61 57 60 62 64 60 61 58 56 58 62 71 79 74 67 63 43 12 13 28 41 41 16 21 32 38 25 26 31 24 44 34 24 36 51 51 51 55 66 78 82 88 85 86 84 84 82 73
62 58 55 60 58 60 60 59 54 56 55 54 54 56 61 66 53 56 34 37 50 58 13 10 12 18 27 54 45 38 44 13 38 18 25 22 20 21 17 29 36 40 46 54 60 63 67 62 61 71 76 82 83 70
61 53 51 53 53 55 53 50 55 52 49 50 49 38 14 10 28 32 21 11 18 25 31 10 24 20 28 36 17 9 11 5 8 9 26 17 32 67 63 68 72 68 71 73 70 67 67 69 65 62 61 64 69 70
48 50 49 48 48 50 45 51 47 43 41 40 13 14 27 37 44 13 11 9 16 5 15 21 47 30 49 21 21 21 7 6 7 8 9 10 22 16 41 54 58 57 58 61 54 59 68 69 62 62 66 70 72 73
45 44 45 50 49 45 47 43 38 34 33 34 36 53 39 12 15 8 7 7 8 7 15 14 14 18 11 9 5 11 7 9 12 15 7 21 18 36 40 44 43 35 38 51 56 60 70 67 70 74 73 73 80 96
45 46 46 48 43 43 38 36 35 32 33 36 13 10 11 12 6 8 8 7 6 16 27 39 16 17 10 13 9 5 11 9 7 2 8 15 29 35 42 36 33 46 53 53 60 69 73 75 69 73 95 108 112 104
44 41 40 38 39 36 35 32 30 29 22 7 9 10 7 8 8 8 8 8 16 26 42 42 30 9 8 4 8 8 9 6 5 5 18 16 30 27 22 36 43 41 58 63 64 68 84 95 103 112 113 113 105 106
40 38 41 36 33 31 29 31 30 27 9 9 10 9 8 20 30 35 43 39 39 36 33 24 22 15 5 7 7 8 7 8 8 12 3 24 42 44 43 47 52 61 70 73 81 94 106 111 110 118 122 121 119 122
40 37 37 30 29 28 25 24 24 19 8 11 14 11 31 29 33 44 42 40 44 38 35 18 9 4 10 7 7 8 17 26 22 16 37 41 51 60 66 70 79 72 85 102 110 100 96 111 120 124 126 118 117 117
37 46 34 30 33 31 27 27 22 12 13 10 16 33 43 39 39 51 48 45 44 38 6 6 7 13 5 6 19 12 15 13 29 53 61 63 65 67 70 74 80 89 103 98 92 111 116 119 119 113 104 106 97 100
40 38 32 37 34 27 27 26 12 11 13 29 14 43 42 46 53 55 52 47 42 43 35 11 12 11 10 19 16 19 43 58 60 58 61 66 71 75 83 86 93 99 84 102 110 113 113 105 95 91 81 87 73 72
33 33 36 39 35 31 16 12 16 10 28 34 43 48 50 55 56 62 63 59 52 50 47 20 10 11 18 19 20 37 42 46 55 69 78 82 84 81 85 86 81 93 105 105 103 99 101 99 88 87 78 41 21 34
35 40 41 50 42 19 10 13 15 13 13 24 44 47 48 45 56 59 55 55 51 28 13 14 27 41 46 62 64 62 65 68 70 71 76 77 70 71 80 81 92 98 95 88 91 96 90 90 75 85 44 34 38 44
37 44 49 40 36 42 14 9 12 15 19 25 39 40 32 40 55 57 52 53 25 11 8 38 51 61 64 66 67 67 67 74 77 73 71 76 75 78 91 87 88 85 80 82 83 97 94 75 79 79 48 40 40 46
39 43 21 7 6 4 10 19 17 12 19 33 47 41 31 14 32 46 49 35 19 35 36 45 52 62 63 58 57 53 53 58 64 69 75 81 85 81 82 81 84 88 87 80 85 85 83 81 81 69 43 28 42 41
29 19 7 7 7 8 15 17 18 23 6 8 22 12 10 23 36 39 11 17 31 31 44 19 15 20 28 37 46 54 60 61 66 70 74 75 80 85 84 77 72 79 81 84 84 80 77 82 66 58 22 21 41 45
22 5 5 6 14 9 10 9 12 12 12 8 6 10 11 16 25 8 13 12 24 26 34 45 53 52 60 60 56 60 62 63 73 75 70 69 70 77 76 72 77 79 71 80 84 75 71 64 53 42 14 22 31 48
8 9 7 10 11 8 6 7 7 5 6 8 8 10 8 16 9 7 13 8 25 31 44 46 54 50 56 67 67 66 61 58 67 76 76 66 71 75 80 77 69 64 66 68 61 63 53 44 37 28 21 5 31 37
8 12 13 9 8 8 8 5 4 6 6 7 8 11 24 5 5 7 6 21 25 41 47 55 60 73 71 59 66 71 77 69 68 74 84 72 70 68 69 66 64 77 49 53 49 43 38 30 26 18 8 7 14 35
7 10 17 19 18 24 9 9 18 4 4 6 6 7 6 7 7 1 32 39 41 55 66 69 73 63 68 74 74 72 73 67 64 68 69 65 62 58 56 59 54 48 47 37 30 29 25 23 15 8 8 11 22 32
14 10 9 19 12 12 5 3 4 5 6 9 12 4 4 6 6 22 40 50 59 67 74 90 72 64 66 67 64 63 56 50 51 51 49 39 21 14 23 28 30 28 23 22 20 18 15 11 6 18 21 35 43 48
10 15 20 3 1 6 6 8 8 8 24 26 3 5 7 13 36 46 57 60 59 76 85 83 80 69 66 63 56 54 50 50 51 58 52 35 33 27 23 15 11 13 12 9 10 9 4 13 23 26 34 44 50 57
9 19 7 7 8 7 11 14 35 41 41 39 30 33 36 32 28 43 44 45 75 78 77 76 72 68 71 76 78 61 42 36 34 43 35 29 24 22 18 13 12 13 18 26 30 31 31 34 43 53 66 74 79 87
7 4 6 7 7 25 24 28 38 38 38 37 36 26 11 16 24 25 30 53 73 76 82 82 71 65 73 74 76 73 65 45 26 16 15 13 12 16 15 15 17 23 32 39 48 58 67 75 81 87 93 95 95 98
7 8 3 3 7 21 23 19 20 21 20 7 5 13 17 13 11 16 35 64 75 85 80 78 79 75 65 63 55 51 40 33 20 12 7 9 17 19 24 28 37 54 65 73 80 86 92 103 108 109 112 113 113 114
9 8 9 9 4 9 14 19 8 10 10 6 7 8 13 14 9 13 51 53 67 79 75 75 69 56 61 59 53 32 40 48 35 24 26 30 37 44 49 54 62 68 75 84 89 96 104 106 109 109 109 111 113 117
Wind_Direction_500mb
304 304 305 306 305 305 304 305 304 303 303 302 300 300 296 290 291 287 283 281 273 273 273 272 273 269 272 270 267 271 302 262 214 212 183 239 256 247 253 264 271 267 267 272 261 232 253 21 28 19 324 11 351 342
302 303 304 305 303 303 303 302 300 300 300 298 299 298 298 290 289 285 281 283 283 268 265 266 264 266 262 263 264 265 253 249 200 198 236 193 250 294 290 282 290 283 265 283 268 263 318 321 283 327 310 309 322 332
300 301 303 302 302 300 299 299 298 299 297 298 294 296 291 288 286 283 279 280 280 273 276 268 264 277 284 267 264 258 257 247 243 245 252 232 232 167 259 275 281 281 274 272 289 322 313 315 313 282 299 346 338 325
298 301 300 301 298 299 298 297 295 297 296 291 294 294 291 287 285 283 275 270 268 261 269 273 271 266 271 273 265 258 257 254 252 249 240 194 227 212 245 259 256 257 286 279 273 289 291 294 305 314 313 313 319 323
297 298 299 297 296 295 295 293 296 301 293 292 294 295 295 298 294 282 272 269 263 257 274 277 281 278 279 269 260 256 262 262 236 231 227 237 241 250 252 263 256 252 250 251 268 277 279 284 287 289 297 300 302 303
296 296 297 294 294 291 290 295 295 295 294 293 291 289 293 290 292 298 294 281 269 263 257 269 279 280 280 271 257 253 250 237 229 213 219 243 247 254 260 257 259 260 252 251 261 271 277 281 281 282 283 288 292 292
293 296 294 294 288 280 291 297 293 294 297 294 294 293 291 287 282 268 260 262 273 287 288 287 261 237 346 274 265 250 235 223 222 231 230 250 260 250 256 259 264 267 260 266 273 279 279 276 276 276 280 278 282 283
295 297 299 295 289 287 292 288 294 296 294 292 294 295 295 291 282 273 270 271 267 263 256 253 261 268 274 283 276 265 243 248 229 237 252 249 263 243 247 252 262 258 266 265 264 264 264 270 270 268 270 274 275 275
301 300 295 293 292 290 298 297 294 294 299 298 295 295 293 288 276 281 290 271 254 239 254 237 244 271 248 250 256 266 256 249 252 236 241 231 241 234 244 242 249 259 264 266 272 275 275 265 277 274 271 270 266 271
298 297 299 299 299 293 293 298 301 298 297 298 299 301 270 248 277 301 302 227 212 219 230 247 252 258 265 270 269 242 224 228 261 220 240 225 243 248 252 259 267 270 268 267 262 266 270 268 263 265 271 273 272 272
289 296 296 294 289 293 292 296 294 298 296 302 272 242 266 289 310 253 243 222 208 256 219 235 232 247 251 247 255 237 217 226 246 240 199 241 251 249 256 256 261 265 273 276 272 279 278 278 278 276 273 270 268 267
297 296 295 297 297 300 296 295 294 295 292 288 284 293 296 260 232 220 240 233 235 235 228 251 298 296 263 249 264 220 206 200 245 195 190 253 270 266 265 262 265 263 274 284 282 280 284 279 282 273 267 265 267 275
295 295 295 293 295 294 295 296 294 290 297 300 278 246 229 241 233 234 227 260 282 330 330 331 311 306 272 234 226 229 246 220 220 167 230 258 269 273 272 270 311 305 298 286 286 286 284 278 275 271 277 278 277 272
291 297 296 292 288 294 293 290 289 292 285 240 243 262 210 256 240 234 344 334 318 315 318 307 286 252 261 297 240 234 236 223 255 215 257 268 265 286 343 291 286 299 299 292 289 290 293 293 289 285 277 274 270 266
291 289 291 290 290 292 291 292 291 284 256 237 244 244 244 263 294 305 301 296 294 300 302 314 308 246 232 240 246 261 273 234 235 256 299 356 331 317 318 310 306 305 302 304 308 303 294 287 284 280 276 271 266 262
287 290 285 290 292 288 287 293 291 278 240 228 230 265 274 289 291 296 296 296 302 307 314 283 265 273 240 226 243 250 281 290 300 304 318 326 318 315 314 312 309 307 312 305 297 293 291 290 286 283 282 274 267 259
286 281 284 285 287 285 278 280 277 226 224 232 237 248 252 265 268 271 277 278 285 281 257 252 270 236 260 251 247 257 271 292 317 308 307 304 302 301 303 305 303 303 301 297 296 297 294 293 292 290 284 283 272 258
277 280 279 291 302 291 270 253 241 243 243 240 243 259 267 269 275 278 278 276 273 266 256 221 234 264 274 279 279 281 286 290 293 295 297 297 297 299 298 299 300 298 295 301 300 296 295 295 294 296 298 300 284 240
278 283 289 291 306 288 195 207 205 245 236 255 264 272 276 280 280 279 279 277 272 274 253 229 229 228 245 255 267 277 283 288 292 293 292 292 293 295 297 298 297 299 301 302 299 297 298 299 297 301 309 284 239 199
271 279 283 293 283 263 226 221 203 240 250 264 273 277 279 281 285 287 283 282 262 250 259 227 242 249 255 265 270 274 278 282 286 290 288 289 292 295 294 295 297 298 299 299 300 303 305 306 312 327 315 252 208 201
279 283 299 297 269 237 200 223 237 245 267 265 275 282 287 295 292 285 280 284 271 218 241 244 250 260 262 265 270 273 276 280 281 279 288 294 294 294 296 297 300 300 299 302 303 306 306 301 317 328 323 249 223 213
279 305 276 262 241 247 248 230 232 240 260 272 281 280 286 261 267 277 291 275 252 257 251 259 261 258 264 272 279 282 284 287 288 287 287 290 293 295 296 298 299 297 298 301 301 301 305 309 323 327 315 236 214 207
290 276 264 230 222 240 258 250 243 246 249 272 291 279 273 286 289 310 284 284 290 304 308 330 329 333 328 317 308 300 296 292 289 286 288 290 291 291 291 292 293 293 299 300 309 306 305 315 326 330 304 236 206 204
264 202 231 236 213 254 247 245 265 256 251 242 280 286 282 288 301 282 264 325 29 34 7 352 343 333 325 320 312 304 301 298 293 291 290 290 289 290 290 289 291 295 302 305 306 310 314 323 329 337 340 219 210 198
180 222 205 256 243 227 249 253 259 277 254 282 307 272 279 315 303 261 293 55 20 357 343 339 334 327 316 307 303 301 301 298 295 295 294 289 286 287 290 295 298 298 305 305 310 314 321 324 330 338 336 306 191 188
189 210 191 231 231 212 233 246 277 275 266 264 262 292 301 283 269 277 22 339 342 338 335 334 327 320 313 308 304 304 304 305 299 291 294 296 289 281 281 285 293 302 316 318 316 316 318 324 327 320 303 268 219 187
210 246 220 238 251 265 295 303 316 290 287 256 280 318 339 314 281 48 351 347 334 328 329 331 325 314 309 310 310 307 307 307 299 295 308 309 308 304 293 288 293 310 321 318 319 317 319 319 306 260 182 174 188 179
228 253 209 240 257 271 248 265 267 245 254 333 345 302 280 271 289 339 336 330 325 324 324 326 330 326 318 319 322 322 323 328 332 334 337 335 340 317 310 305 304 304 313 322 325 328 316 288 235 144 146 157 152 156
226 245 274 70 169 269 260 214 221 263 305 316 265 257 256 282 311 320 323 322 323 328 334 337 339 343 345 347 350 350 346 344 339 341 342 347 358 359 350 341 345 2 354 355 30 40 112 156 148 144 145 143 140 140
242 242 253 172 167 236 236 278 301 302 301 300 293 281 287 296 310 313 314 333 339 341 340 340 340 344 345 347 350 2 14 6 3 346 332 339 352 354 4 22 52 70 80 86 95 110 123 127 126 127 124 122 123 121
253 257 241 233 242 269 293 309 306 303 299 298 298 272 318 330 316 309 337 338 343 346 348 349 352 357 352 355 353 348 353 10 7 4 340 341 4 26 49 65 80 92 101 107 111 112 113 112 111 111 110 108 108 109
227 219 276 281 286 306 327 330 307 290 298 314 51 21 352 336 321 323 331 344 353 349 350 352 350 348 2 6 8 6 11 17 6 8 29 58 70 74 93 102 103 107 106 106 106 104 103 105 106 106 107 111 116 118
234 278 276 280 305 10 339 334 302 295 341 64 55 47 19 347 328 328 335 350 351 350 351 355 357 6 18 21 24 37 62 69 82 85 96 103 109 112 113 113 114 115 115 115 114 115 115 116 117 118 120 121 122 122
Wind_Speed_850mb
54 54 55 55 57 55 53 52 51 47 46 46 46 44 43 42 44 42 51 45 41 42 57 68 67 54 45 41 17 26 22 17 10 6 5 6 12 15 20 28 28 28 12 6 12 18 19 43 20 12 13 31 37 46
56 57 57 57 55 53 51 50 49 49 52 48 47 48 47 45 46 44 59 58 55 55 55 55 60 63 63 65 62 55 38 29 8 4 3 1 5 10 30 30 27 14 8 6 7 10 46 67 17 22 11 30 19 33
57 56 57 56 55 54 53 53 53 53 53 53 54 50 49 52 55 56 65 65 65 60 73 79 71 47 35 46 54 66 57 55 55 51 22 11 13 7 13 15 22 27 37 24 23 7 19 61 48 32 35 38 27 28
57 60 57 58 56 56 55 55 54 55 57 54 55 59 59 63 63 67 71 65 64 37 26 55 66 71 69 63 68 78 88 85 69 56 26 7 12 27 19 24 26 26 36 38 49 35 35 30 36 57 52 49 50 53
63 60 61 59 59 59 58 55 56 63 58 61 65 64 63 68 64 57 54 62 63 54 39 52 80 104 115 107 92 71 61 70 60 38 16 16 32 20 25 25 28 40 39 30 33 49 48 51 55 50 55 60 57 57
61 60 61 63 66 60 57 59 68 64 63 63 61 64 67 61 50 54 49 57 59 60 43 18 31 37 64 60 64 77 81 72 52 18 15 35 68 38 20 34 54 68 75 72 55 65 73 88 88 82 75 64 62 65
63 66 67 69 67 58 56 61 59 64 63 64 69 71 64 59 56 56 37 33 30 40 23 12 10 16 20 38 55 59 52 46 35 30 23 40 53 57 31 41 53 62 58 42 48 56 58 70 62 64 71 71 67 70
61 61 61 61 54 57 61 57 60 62 64 60 61 58 56 58 62 71 79 74 67 63 43 12 13 28 41 41 16 21 32 38 25 26 31 24 44 34 24 36 51 51 51 55 66 78 82 88 85 86 84 84 82 73
62 58 55 60 58 60 60 59 54 56 55 54 54 56 61 66 53 56 34 37 50 58 13 10 12 18 27 54 45 38 44 13 38 18 25 22 20 21 17 29 36 40 46 54 60 63 67 62 61 71 76 82 83 70
61 53 51 53 53 55 53 50 55 52 49 50 49 38 14 10 28 32 21 11 18 25 31 10 24 20 28 36 17 9 11 5 8 9 26 17 32 67 63 68 72 68 71 73 70 67 67 69 65 62 61 64 69 70
48 50 49 48 48 50 45 51 47 43 41 40 13 14 27 37 44 13 11 9 16 5 15 21 47 30 49 21 21 21 7 6 7 8 9 10 22 16 41 54 58 57 58 61 54 59 68 69 62 62 66 70 72 73
45 44 45 50 49 45 47 43 38 34 33 34 36 53 39 12 15 8 7 7 8 7 15 14 14 18 11 9 5 11 7 9 12 15 7 21 18 36 40 44 43 35 38 51 56 60 70 67 70 74 73 73 80 96
45 46 46 48 43 43 38 36 35 32 33 36 13 10 11 12 6 8 8 7 6 16 27 39 16 17 10 13 9 5 11 9 7 2 8 15 29 35 42 36 33 46 53 53 60 69 73 75 69 73 95 108 112 104
44 41 40 38 39 36 35 32 30 29 22 7 9 10 7 8 8 8 8 8 16 26 42 42 30 9 8 4 8 8 9 6 5 5 18 16 30 27 22 36 43 41 58 63 64 68 84 95 103 112 113 113 105 106
40 38 41 36 33 31 29 31 30 27 9 9 10 9 8 20 30 35 43 39 39 36 33 24 22 15 5 7 7 8 7 8 8 12 3 24 42 44 43 47 52 61 70 73 81 94 106 111 110 118 122 121 119 122
40 37 37 30 29 28 25 24 24 19 8 11 14 11 31 29 33 44 42 40 44 38 35 18 9 4 10 7 7 8 17 26 22 16 37 41 51 60 66 70 79 72 85 102 110 100 96 111 120 124 126 118 117 117
37 46 34 30 33 31 27 27 22 12 13 10 16 33 43 39 39 51 48 45 44 38 6 6 7 13 5 6 19 12 15 13 29 53 61 63 65 67 70 74 80 89 103 98 92 111 116 119 119 113 104 106 97 100
40 38 32 37 34 27 27 26 12 11 13 29 14 43 42 46 53 55 52 47 42 43 35 11 12 11 10 19 16 19 43 58 60 58 61 66 71 75 83 86 93 99 84 102 110 113 113 105 95 91 81 87 73 72
33 33 36 39 35 31 16 12 16 10 28 34 43 48 50 55 56 62 63 59 52 50 47 20 10 11 18 19 20 37 42 46 55 69 78 82 84 81 85 86 81 93 105 105 103 99 101 99 88 87 78 41 21 34
35 40 41 50 42 19 10 13 15 13 13 24 44 47 48 45 56 59 55 55 51 28 13 14 27 41 46 62 64 62 65 68 70 71 76 77 70 71 80 81 92 98 95 88 91 96 90 90 75 85 44 34 38 44
37 44 49 40 36 42 14 9 12 15 19 25 39 40 32 40 55 57 52 53 25 11 8 38 51 61 64 66 67 67 67 74 77 73 71 76 75 78 91 87 88 85 80 82 83 97 94 75 79 79 48 40 40 46
39 43 21 7 6 4 10 19 17 12 19 33 47 41 31 14 32 46 49 35 19 35 36 45 52 62 63 58 57 53 53 58 64 69 75 81 85 81 82 81 84 88 87 80 85 85 83 81 81 69 43 28 42 41
29 19 7 7 7 8 15 17 18 23 6 8 22 12 10 23 36 39 11 17 31 31 44 19 15 20 28 37 46 54 60 61 66 70 74 75 80 85 84 77 72 79 81 84 84 80 77 82 66 58 22 21 41 45
22 5 5 6 14 9 10 9 12 12 12 8 6 10 11 16 25 8 13 12 24 26 34 45 53 52 60 60 56 60 62 63 73 75 70 69 70 77 76 72 77 79 71 80 84 75 71 64 53 42 14 22 31 48
8 9 7 10 11 8 6 7 7 5 6 8 8 10 8 16 9 7 13 8 25 31 44 46 54 50 56 67 67 66 61 58 67 76 76 66 71 75 80 77 69 64 66 68 61 63 53 44 37 28 21 5 31 37
8 12 13 9 8 8 8 5 4 6 6 7 8 11 24 5 5 7 6 21 25 41 47 55 60 73 71 59 66 71 77 69 68 74 84 72 70 68 69 66 64 77 49 53 49 43 38 30 26 18 8 7 14 35
7 10 17 19 18 24 9 9 18 4 4 6 6 7 6 7 7 1 32 39 41 55 66 69 73 63 68 74 74 72 73 67 64 68 69 65 62 58 56 59 54 48 47 37 30 29 25 23 15 8 8 11 22 32
14 10 9 19 12 12 5 3 4 5 6 9 12 4 4 6 6 22 40 50 59 67 74 90 72 64 66 67 64 63 56 50 51 51 49 39 21 14 23 28 30 28 23 22 20 18 15 11 6 18 21 35 43 48
10 15 20 3 1 6 6 8 8 8 24 26 3 5 7 13 36 46 57 60 59 76 85 83 80 69 66 63 56 54 50 50 51 58 52 35 33 27 23 15 11 13 12 9 10 9 4 13 23 26 34 44 50 57
9 19 7 7 8 7 11 14 35 41 41 39 30 33 36 32 28 43 44 45 75 78 77 76 72 68 71 76 78 61 42 36 34 43 35 29 24 22 18 13 12 13 18 26 30 31 31 34 43 53 66 74 79 87
7 4 6 7 7 25 24 28 38 38 38 37 36 26 11 16 24 25 30 53 73 76 82 82 71 65 73 74 76 73 65 45 26 16 15 13 12 16 15 15 17 23 32 39 48 58 67 75 81 87 93 95 95 98
7 8 3 3 7 21 23 19 20 21 20 7 5 13 17 13 11 16 35 64 75 85 80 78 79 75 65 63 55 51 40 33 20 12 7 9 17 19 24 28 37 54 65 73 80 86 92 103 108 109 112 113 113 114
9 8 9 9 4 9 14 19 8 10 10 6 7 8 13 14 9 13 51 53 67 79 75 75 69 56 61 59 53 32 40 48 35 24 26 30 37 44 49 54 62 68 75 84 89 96 104 106 109 109 109 111 113 117
Wind_Direction_850mb
304 304 305 306 305 305 304 305 304 303 303 302 300 300 296 290 291 287 283 281 273 273 273 272 273 269 272 270 267 271 302 262 214 212 183 239 256 247 253 264 271 267 267 272 261 232 253 21 28 19 324 11 351 342
302 303 304 305 303 303 303 302 300 300 300 298 299 298 298 290 289 285 281 283 283 268 265 266 264 266 262 263 264 265 253 249 200 198 236 193 250 294 290 282 290 283 265 283 268 263 318 321 283 327 310 309 322 332
300 301 303 302 302 300 299 299 298 299 297 298 294 296 291 288 286 283 279 280 280 273 276 268 264 277 284 267 264 258 257 247 243 245 252 232 232 167 259 275 281 281 274 272 289 322 313 315 313 282 299 346 338 325
298 301 300 301 298 299 298 297 295 297 296 291 294 294 291 287 285 283 275 270 268 261 269 273 271 266 271 273 265 258 257 254 252 249 240 194 227 212 245 259 256 257 286 279 273 289 291 294 305 314 313 313 319 323
297 298 299 297 296 295 295 293 296 301 293 292 294 295 295 298 294 282 272 269 263 257 274 277 281 278 279 269 260 256 262 262 236 231 227 237 241 250 252 263 256 252 250 251 268 277 279 284 287 289 297 300 302 303
296 296 297 294 294 291 290 295 295 295 294 293 291 289 293 290 292 298 294 281 269 263 257 269 279 280 280 271 257 253 250 237 229 213 219 243 247 254 260 257 259 260 252 251 261 271 277 281 281 282 283 288 292 292
293 296 294 294 288 280 291 297 293 294 297 294 294 293 291 287 282 268 260 262 273 287 288 287 261 237 346 274 265 250 235 223 222 231 230 250 260 250 256 259 264 267 260 266 273 279 279 276 276 276 280 278 282 283
295 297 299 295 289 287 292 288 294 296 294 292 294 295 295 291 282 273 270 271 267 263 256 253 261 268 274 283 276 265 243 248 229 237 252 249 263 243 247 252 262 258 266 265 264 264 264 270 270 268 270 274 275 275
301 300 295 293 292 290 298 297 294 294 299 298 295 295 293 288 276 281 290 271 254 239 254 237 244 271 248 250 256 266 256 249 252 236 241 231 241 234 244 242 249 259 264 266 272 275 275 265 277 274 271 270 266 271
298 297 299 299 299 293 293 298 301 298 297 298 299 301 270 248 277 301 302 227 212 219 230 247 252 258 265 270 269 242 224 228 261 220 240 225 243 248 252 259 267 270 268 267 262 266 270 268 263 265 271 273 272 272
289 296 296 294 289 293 292 296 294 298 296 302 272 242 266 289 310 253 243 222 208 256 219 235 232 247 251 247 255 237 217 226 246 240 199 241 251 249 256 256 261 265 273 276 272 279 278 278 278 276 273 270 268 267
297 296 295 297 297 300 296 295 294 295 292 288 284 293 296 260 232 220 240 233 235 235 228 251 298 296 263 249 264 220 206 200 245 195 190 253 270 266 265 262 265 263 274 284 282 280 284 279 282 273 267 265 267 275
295 295 295 293 295 294 295 296 294 290 297 300 278 246 229 241 233 234 227 260 282 330 330 331 311 306 272 234 226 229 246 220 220 167 230 258 269 273 272 270 311 305 298 286 286 286 284 278 275 271 277 278 277 272
291 297 296 292 288 294 293 290 289 292 285 240 243 262 210 256 240 234 344 334 318 315 318 307 286 252 261 297 240 234 236 223 255 215 257 268 265 286 343 291 286 299 299 292 289 290 293 293 289 285 277 274 270 266
291 289 291 290 290 292 291 292 291 284 256 237 244 244 244 263 294 305 301 296 294 300 302 314 308 246 232 240 246 261 273 234 235 256 299 356 331 317 318 310 306 305 302 304 308 303 294 287 284 280 276 271 266 262
287 290 285 290 292 288 287 293 291 278 240 228 230 265 274 289 291 296 296 296 302 307 314 283 265 273 240 226 243 250 281 290 300 304 318 326 318 315 314 312 309 307 312 305 297 293 291 290 286 283 282 274 267 259
286 281 284 285 287 285 278 280 277 226 224 232 237 248 252 265 268 271 277 278 285 281 257 252 270 236 260 251 247 257 271 292 317 308 307 304 302 301 303 305 303 303 301 297 296 297 294 293 292 290 284 283 272 258
277 280 279 291 302 291 270 253 241 243 243 240 243 259 267 269 275 278 278 276 273 266 256 221 234 264 274 279 279 281 286 290 293 295 297 297 297 299 298 299 300 298 295 301 300 296 295 295 294 296 298 300 284 240
278 283 289 291 306 288 195 207 205 245 236 255 264 272 276 280 280 279 279 277 272 274 253 229 229 228 245 255 267 277 283 288 292 293 292 292 293 295 297 298 297 299 301 302 299 297 298 299 297 301 309 284 239 199
271 279 283 293 283 263 226 221 203 240 250 264 273 277 279 281 285 287 283 282 262 250 259 227 242 249 255 265 270 274 278 282 286 290 288 289 292 295 294 295 297 298 299 299 300 303 305 306 312 327 315 252 208 201
279 283 299 297 269 237 200 223 237 245 267 265 275 282 287 295 292 285 280 284 271 218 241 244 250 260 262 265 270 273 276 280 281 279 288 294 294 294 296 297 300 300 299 302 303 306 306 301 317 328 323 249 223 213
279 305 276 262 241 247 248 230 232 240 260 272 281 280 286 261 267 277 291 275 252 257 251 259 261 258 264 272 279 282 284 287 288 287 287 290 293 295 296 298 299 297 298 301 301 301 305 309 323 327 315 236 214 207
290 276 264 230 222 240 258 250 243 246 249 272 291 279 273 286 289 310 284 284 290 304 308 330 329 333 328 317 308 300 296 292 289 286 288 290 291 291 291 292 293 293 299 300 309 306 305 315 326 330 304 236 206 204
264 202 231 236 213 254 247 245 265 256 251 242 280 286 282 288 301 282 264 325 29 34 7 352 343 333 325 320 312 304 301 298 293 291 290 290 289 290 290 289 291 295 302 305 306 310 314 323 329 337 340 219 210 198
180 222 205 256 243 227 249 253 259 277 254 282 307 272 279 315 303 261 293 55 20 357 343 339 334 327 316 307 303 301 301 298 295 295 294 289 286 287 290 295 298 298 305 305 310 314 321 324 330 338 336 306 191 188
189 210 191 231 231 212 233 246 277 275 266 264 262 292 301 283 269 277 22 339 342 338 335 334 327 320 313 308 304 304 304 305 299 291 294 296 289 281 281 285 293 302 316 318 316 316 318 324 327 320 303 268 219 187
210 246 220 238 251 265 295 303 316 290 287 256 280 318 339 314 281 48 351 347 334 328 329 331 325 314 309 310 310 307 307 307 299 295 308 309 308 304 293 288 293 310 321 318 319 317 319 319 306 260 182 174 188 179
228 253 209 240 257 271 248 265 267 245 254 333 345 302 280 271 289 339 336 330 325 324 324 326 330 326 318 319 322 322 323 328 332 334 337 335 340 317 310 305 304 304 313 322 325 328 316 288 235 144 146 157 152 156
226 245 274 70 169 269 260 214 221 263 305 316 265 257 256 282 311 320 323 322 323 328 334 337 339 343 345 347 350 350 346 344 339 341 342 347 358 359 350 341 345 2 354 355 30 40 112 156 148 144 145 143 140 140
242 242 253 172 167 236 236 278 301 302 301 300 293 281 287 296 310 313 314 333 339 341 340 340 340 344 345 347 350 2 14 6 3 346 332 339 352 354 4 22 52 70 80 86 95 110 123 127 126 127 124 122 123 121
253 257 241 233 242 269 293 309 306 303 299 298 298 272 318 330 316 309 337 338 343 346 348 349 352 357 352 355 353 348 353 10 7 4 340 341 4 26 49 65 80 92 101 107 111 112 113 112 111 111 110 108 108 109
227 219 276 281 286 306 327 330 307 290 298 314 51 21 352 336 321 323 331 344 353 349 350 352 350 348 2 6 8 6 11 17 6 8 29 58 70 74 93 102 103 107 106 106 106 104 103 105 106 106 107 111 116 118
234 278 276 280 305 10 339 334 302 295 341 64 55 47 19 347 328 328 335 350 351 350 351 355 357 6 18 21 24 37 62 69 82 85 96 103 109 112 113 113 114 115 115 115 114 115 115 116 117 118 120 121 122 122